Terminal Aerodrome Forecast
Issued by NWS

Home | Current Version | Previous Version | Text Only | Print | Product List | Glossary On
Versions: 1 2 3 4 5 6 7 8 9 10 11 12 13 14 15 16 17
694
FTUS44 KMAF 010921 AAA
TAFHOB
TAF AMD
KHOB 010921Z 0109/0206 07018G25KT P6SM BKN120
      TEMPO 0109/0112 05023G30KT
     FM011200 02022G30KT P6SM OVC035
     FM011800 02014G20KT P6SM OVC035=

USA.gov is the U.S. government's official web portal to all federal, state and local government web resources and services.